[TLELIST] Archives

 

[TLELIST] Current TLEs

February 26th 2025 PDT

HST 1 20580U 90037B 25056.75569401 .00013022 00000-0 52472-3 0 9990 2 20580 28.4684 79.2666 0001905 286.0547 73.9837 15.23286141715667 ISS (ZARYA) 1 25544U 98067A 25057.23680487 .00026685 00000-0 48254-3 0 9990 2 25544 51.6375 136.5555 0006009 318.1256 136.8866 15.49475785497957 CXO 1 25867U 99040B 25058.37201156 .00001150 00000-0 00000+0 0 9991 2 25867 46.9769 135.4700 8580484 307.2371 0.6391 0.37800227 26681 ...Continue Reading

[TLELIST] Current TLEs

February 25th 2025 PDT

HST 1 20580U 90037B 25055.77294442 .00012371 00000-0 49850-3 0 9993 2 20580 28.4684 85.9072 0001933 273.9256 86.1117 15.23258958715511 ISS (ZARYA) 1 25544U 98067A 25056.39790021 .00026003 00000-0 47123-3 0 9990 2 25544 51.6375 140.7106 0005896 314.3477 138.1347 15.49428638497822 CXO 1 25867U 99040B 25058.37201156 .00001150 00000-0 00000+0 0 9991 2 25867 46.9769 135.4700 8580484 307.2371 0.6391 0.37800227 26681 ...Continue Reading

[TLELIST] Current TLEs

February 25th 2025 PDT

HST 1 20580U 90037B 25055.77294442 .00012371 00000-0 49850-3 0 9993 2 20580 28.4684 85.9072 0001933 273.9256 86.1117 15.23258958715511 ISS (ZARYA) 1 25544U 98067A 25056.39790021 .00026003 00000-0 47123-3 0 9990 2 25544 51.6375 140.7106 0005896 314.3477 138.1347 15.49428638497822 CXO 1 25867U 99040B 25058.37201156 .00001150 00000-0 00000+0 0 9991 2 25867 46.9769 135.4700 8580484 307.2371 0.6391 0.37800227 26681 ...Continue Reading

[TLELIST] Current TLEs

February 24th 2025 PDT

HST 1 20580U 90037B 25054.79017774 .00011100 00000-0 44684-3 0 9994 2 20580 28.4683 92.5477 0001985 261.9234 98.1135 15.23234123715367 ISS (ZARYA) 1 25544U 98067A 25055.22036441 .00025978 00000-0 47180-3 0 9993 2 25544 51.6356 146.5432 0006045 308.3295 51.7150 15.49366463497644 CXO 1 25867U 99040B 25055.72788827 .00001130 00000-0 00000+0 0 9990 2 25867 46.9206 135.6033 8583641 307.2110 0.5921 0.37801725 26678 ...Continue Reading

[TLELIST] Current TLEs

February 23rd 2025 PDT

HST 1 20580U 90037B 25053.80739604 .00010551 00000-0 42462-3 0 9999 2 20580 28.4681 99.1881 0002035 249.8656 110.1719 15.23210957715213 ISS (ZARYA) 1 25544U 98067A 25053.73682840 .00022830 00000-0 41694-3 0 9995 2 25544 51.6354 153.8867 0006032 301.7330 58.3070 15.49287303497412 CXO 1 25867U 99040B 25055.72788827 .00001130 00000-0 00000+0 0 9990 2 25867 46.9206 135.6033 8583641 307.2110 0.5921 0.37801725 26678 ...Continue Reading

[TLELIST] Current TLEs

February 23rd 2025 PDT

HST 1 20580U 90037B 25053.80739604 .00010551 00000-0 42462-3 0 9999 2 20580 28.4681 99.1881 0002035 249.8656 110.1719 15.23210957715213 ISS (ZARYA) 1 25544U 98067A 25053.73682840 .00022830 00000-0 41694-3 0 9995 2 25544 51.6354 153.8867 0006032 301.7330 58.3070 15.49287303497412 CXO 1 25867U 99040B 25055.72788827 .00001130 00000-0 00000+0 0 9990 2 25867 46.9206 135.6033 8583641 307.2110 0.5921 0.37801725 26678 ...Continue Reading

[TLELIST] Current TLEs

February 22nd 2025 PDT

HST 1 20580U 90037B 25052.82459975 .00009772 00000-0 39296-3 0 9994 2 20580 28.4680 105.8281 0002115 237.8480 122.1909 15.23188622715062 ISS (ZARYA) 1 25544U 98067A 25052.76926544 .00020907 00000-0 38326-3 0 9990 2 25544 51.6353 158.6755 0005970 296.9031 63.1347 15.49238473497261 CXO 1 25867U 99040B 25055.72788827 .00001130 00000-0 00000+0 0 9990 2 25867 46.9206 135.6033 8583641 307.2110 0.5921 0.37801725 26678 ...Continue Reading

[TLELIST] Current TLEs

February 21st 2025 PDT

HST 1 20580U 90037B 25051.57970519 .00010578 00000-0 42637-3 0 9996 2 20580 28.4678 114.2391 0002152 223.1953 136.8472 15.23161787714877 ISS (ZARYA) 1 25544U 98067A 25052.46364612 .00019485 00000-0 35802-3 0 9994 2 25544 51.6385 160.1843 0005532 294.2004 160.2032 15.49223717497217 CXO 1 25867U 99040B 25053.08415715 .00001025 00000-0 00000-0 0 9994 2 25867 46.8597 135.7311 8587238 307.1775 0.6080 0.37803299 15518 ...Continue Reading

[TLELIST] Current TLEs

February 20th 2025 PDT

HST 1 20580U 90037B 25051.25209753 .00011995 00000-0 48458-3 0 9997 2 20580 28.4677 116.4526 0002133 219.2826 140.7614 15.23156814715085 ISS (ZARYA) 1 25544U 98067A 25050.83424147 .00018626 00000-0 32986-3 0 9999 2 25544 51.6359 168.2538 0004483 338.7930 21.2872 15.50312718496965 CXO 1 25867U 99040B 25053.08415715 .00001025 00000-0 00000-0 0 9994 2 25867 46.8597 135.7311 8587238 307.1775 0.6080 0.37803299 15518 ...Continue Reading

[TLELIST] Current TLEs

February 19th 2025 PDT

HST 1 20580U 90037B 25050.20374268 .00013427 00000-0 54373-3 0 9990 2 20580 28.4676 123.5346 0002273 206.3689 153.6790 15.23134015714921 ISS (ZARYA) 1 25544U 98067A 25050.46303878 .00018326 00000-0 32497-3 0 9999 2 25544 51.6392 170.0868 0004114 338.4416 108.5343 15.50288610496905 CXO 1 25867U 99040B 25050.43880923 .00000910 00000-0 00000-0 0 9999 2 25867 46.8236 135.8362 8590486 307.1490 0.4104 0.37807170 15504 ...Continue Reading
  • This mailing list is a public mailing list - anyone may join or leave, at any time.
  • This mailing list is announce-only.

International Space Station (ISS) / Hubble Space Telescope (HST) / Chandra X-Ray Observatory Orbital Data via EMAIL

Privacy Policy:

Private list